SCP
0 0 0 0 0 0 0 0 0 0 0 0 0 0 -0 -0 -0 -0 0 0 0 0 -0 0 0 0 0 0 0 0 0 0 0 0 0 0 0 0 0 -0 -0 0 0 -0 0 0 0 0 0 0 0 0 0 0
0 0 0 0 0 0 0 0 0 0 0 0 -0 -0 -0 -0 -0 -0 0 0 0 0 0 0 0 0 0 0 0 0 0 0 0 0 0 0 0 0 -0 0 -0 0 -0 -0 -0 -0 -0 -0 -0 0 0 0 0 0
0 0 0 0 0 0 0 0 0 0 0 0 -0 -0 -0 -0 -0 0 0 0 0 0 0 0 0 0 0 0 0 0 0 0 0 0 0 0 0 0 0 0 -0 0 -0 -0 0 0 -0 -0 -0 -0 -0 0 0 0
0 0 0 0 0 0 0 0 0 0 0 -0 -0 -0 -0 -0 -0 -0 0 -0 -0 0 0 0 0 0 0 0 0 0 0 0 0 0 0 0 0 0 0 -0 -0 -0 -0 -0 -0 0 0 -0 0 0 -0 0 0 0
0 0 0 0 0 0 0 0 0 0 0 -0 -0 -0 -0 -0 0 0 0 0 0 -0 -0 0 0 0 0 0 0 0 0 0 0 0 0 0 0 0 0 0 0 -0 -0 -0 -0 -0 0 -0 -0 -0 -0 0 0 0
0 0 0 0 0 0 0 0 0 0 -0 -0 -0 -0 -0 0 0 0 0 0 0 0 -0 0 0 0 0 0 0 0 0 0 0 0 0 0 0 0 0 0 0 0 0 0 0 0 0 -0 -0 -0 -0 -0 -0 -0
0 0 0 0 0 0 0 0 0 0 -0 -0 -0 -0 -0 0 0 -0 -0 0 -0 0 -0 0 0 0 0 0 0 0 0 0 0 0 0 0 0 0 0 0 0 0 0 0 0 -0 -0 -0 -0 -0 -0 -0 -0 -0
0 0 0 0 0 0 0 0 0 0 -0 -0 -0 -0 -0 0 0 0 0 0 0 0 0 0 0 0 -0 0 0 0 0 0 0 0 0 0 0 0 0 0 0 0 0 0 -0 -0 -0 -0 -0 -0 -0 -0 -0 -0
0 0 0 0 0 0 0 0 0 0 -0 -0 0 0 0 0 0 0 0 0 0 0 0 0 0 0 0 0 0 0 0 0 0 0 0 0 0 0 0 0 0 0 0 0 0 -0 0 0 -0 -0 0 -0 -0 0
0 0 0 0 0 0 0 0 -0 0 -0 -0 0 0 0 0 -0 -0 0 -0 0 -0 -0 -0 0 0 0 0 0 0 0 0 0 0 0 0 0 0 0 0 0 0 0 0 0 0 0 0 -0 0 0 0 0 0
0 0 0 0 0 0 -0 -0 -0 -0 -0 0 -0 -0 0 0 0 0 0 0 0 -0 -0 0 0 0 0 0 0 0 0 0 0 0 0 0 0 0 0 0 0 0 0 0 0 0 0 0 0 0 0 0 0 0
0 0 0 0 -0 -0 -0 0 -0 -0 0 0 0 0 0 0 0 0 0 -0 0 0 0 -0 -0 0 0 0 0 0 0 0 0 0 0 0 0 0 0 0 0 0 0 0 0 0 0 0 0 0 0 0 0 0
-0 -0 0 -0 -0 -0 0 0 -0 0 -0 0 0 0 0 0 -0 0 -0 -0 -0 -0 -0 -0 -0 -0 -0 0 0 0 0 0 0 0 0 0 0 0 0 0 0 0 0 0 0 0 0 0 0 0 0 0 0 0
-0 -0 -0 -0 -0 0 0 0 -0 0 0 0 0 0 0 0 -0 0 0 0 0 -0 -0 0 0 0 -0 0 0 0 0 0 0 0 0 0 0 0 0 0 0 0 0 0 0 0 0 0 0 0 0 0 0 0
-0 -0 -0 0 0 0 0 0 0 0 0 0 0 0 0 0 0 0 0 0 0 0 0 -0 -0 0 0 0 0 0 0 0 0 0 0 0 0 0 0 0 0 0 0 -0 -0 -0 0 0 0 0 0 0 0 0
-0 0 0 0 0 0 -0 -0 0 0 0 0 0 0 0 -0 0 0 0 0 0 0 0 0 -0 0 0 0 0 0 0 0 0 0 0 -0 -0 0 0 0 -0 -0 -0 -0 -0 0 0 0 0 0 0 0 0 0
-0 0 -0 -0 -0 -0 -0 0 0 0 0 0 0 0 0 0 0 0 0 0 0 0 0 0 -0 0 0 0 0 0 -0 0 0 0 0 0 0 -0 -0 -0 -0 -0 0 -0 -0 -0 -0 -0 0 0 0 0 0 0
0 0 -0 -0 -0 0 0 0 0 0 0 0 0 0 0 0 0 0 0 0 0 0 0 0 0 0 0 0 0 -0 -0 0 0 0 0 0 -0 -0 -0 0 0 0 -0 -0 -0 -0 0 -0 0 0 0 0 0 0
0 0 0 0 -0 -0 0 0 0 0 -0 0 -0 0 0 0 0 0 0 0 0 -0 -0 0 0 0 0 0 0 0 -0 0 0 -0 0 0 -0 -0 0 0 0 0 -0 -0 -0 -0 -0 -0 0 0 0 0 0 0
0 0 0 0 0 0 0 0 0 0 0 -0 -0 -0 0 -0 -0 -0 0 -0 0 0 0 0 0 -0 0 0 -0 0 0 0 0 -0 -0 -0 -0 -0 -0 -0 -0 0 -0 0 0 -0 -0 0 0 0 0 0 0 0
0 0 -0 0 0 0 -0 0 -0 0 0 0 -0 0 0 0 0 0 0 0 -0 -0 0 0 0 0 -0 -0 -0 -0 -0 -0 0 0 -0 -0 -0 -0 -0 -0 -0 -0 0 0 0 0 0 0 -0 -0 0 -0 0 0
-0 -0 -0 0 -0 -0 0 0 -0 0 0 0 0 -0 -0 -0 -0 0 0 0 0 -0 -0 -0 0 0 0 -0 0 0 0 0 0 -0 -0 -0 -0 0 0 0 0 0 0 0 0 0 0 0 -0 -0 0 0 0 0
0 0 0 -0 -0 -0 0 0 0 0 0 0 0 0 0 0 0 -0 0 -0 -0 0 0 0 0 0 0 0 -0 -0 0 0 -0 -0 -0 -0 0 0 0 0 0 0 0 0 0 0 0 0 -0 -0 0 0 -0 0
-0 -0 -0 0 0 -0 -0 0 0 0 0 0 0 0 0 0 0 0 0 -0 -0 0 0 0 0 0 0 0 -0 0 0 -0 0 0 -0 0 0 0 0 0 0 0 0 0 0 0 0 0 0 -0 -0 -0 0 -0
0 0 0 0 -0 0 0 0 0 -0 0 0 0 0 0 0 0 0 0 0 0 0 -0 0 0 0 0 0 0 0 0 -0 0 -0 -0 0 0 0 0 0 0 0 0 0 0 0 0 0 0 0 0 0 -0 -0
0 0 0 0 0 0 0 0 0 0 0 0 0 0 0 0 0 0 0 0 0 0 0 0 0 0 0 0 -0 -0 -0 -0 0 -0 -0 0 0 0 0 0 0 0 0 0 0 -0 -0 -0 0 0 0 -0 0 -0
0 0 0 0 0 0 -0 -0 -0 0 -0 0 0 0 0 0 0 0 0 0 0 0 0 0 0 0 0 0 -0 -0 0 0 0 0 0 0 0 0 0 0 0 0 0 0 0 0 0 -0 0 0 -0 -0 -0 -0
0 0 0 0 0 0 0 0 0 0 0 0 0 0 0 0 0 0 0 0 0 0 0 0 0 0 -0 -0 -0 0 0 0 0 0 0 0 0 0 0 0 0 0 0 0 0 0 0 -0 0 0 0 0 -0 -0
0 0 0 0 0 0 0 0 -0 -0 0 0 0 0 0 0 0 0 0 0 0 0 -0 0 0 -0 -0 0 0 0 0 0 0 0 0 0 0 0 0 0 0 0 0 0 0 0 0 -0 -0 -0 0 0 0 0
0 0 0 0 0 0 0 0 -0 -0 -0 -0 0 0 0 0 0 0 0 -0 0 0 0 0 0 0 0 0 0 0 0 0 0 0 0 0 0 0 0 0 0 0 0 0 0 0 0 0 0 0 -0 -0 0 0
0 0 0 0 0 0 0 0 0 -0 -0 -0 -0 -0 -0 0 0 0 0 0 0 0 0 0 0 0 0 0 0 0 0 0 0 0 0 0 0 0 0 0 0 0 0 0 0 0 0 0 0 0 0 0 0 0
0 0 0 0 0 0 0 0 0 0 0 0 0 -0 -0 -0 -0 -0 0 0 0 0 0 0 0 0 0 0 0 0 0 0 0 0 0 0 0 0 0 0 0 0 0 0 0 0 0 0 0 0 0 0 0 0
0 0 0 0 0 0 0 0 0 0 0 0 0 0 0 0 -0 0 0 0 0 0 0 0 0 0 0 0 0 0 0 0 0 0 -0 0 0 0 0 0 0 0 0 0 0 0 0 0 0 0 0 0 0 0
Wind_Speed_500mb
14 15 18 21 25 27 28 29 29 32 35 37 38 38 39 41 40 29 23 31 39 13 18 9 18 24 22 19 7 35 22 23 13 11 7 7 7 8 9 23 14 10 11 7 7 7 3 45 26 13 15 41 38 48
11 13 17 20 22 25 26 27 27 31 34 35 36 37 37 37 35 35 24 21 24 23 20 30 24 14 12 10 15 24 16 13 11 6 7 6 6 7 19 8 12 9 8 6 4 4 19 32 17 33 40 36 40 38
10 12 16 18 21 23 25 25 27 30 31 34 38 39 35 31 30 28 18 33 42 15 14 16 11 5 12 19 21 7 9 15 6 5 5 5 9 6 6 8 26 24 22 4 12 12 19 21 30 35 42 42 34 29
8 10 13 16 20 23 24 25 27 29 30 35 39 37 31 22 24 14 17 22 25 11 8 11 12 27 12 26 20 21 20 20 20 14 5 6 7 9 6 16 15 8 16 17 3 20 23 28 45 54 40 31 44 52
7 9 12 16 20 22 24 25 28 30 31 34 36 32 27 20 16 11 7 12 28 20 6 16 11 12 37 17 10 7 20 28 12 7 5 5 15 12 9 12 6 8 7 8 5 31 22 34 55 43 8 39 49 80
6 8 12 16 19 22 24 25 28 31 32 32 33 30 23 20 16 6 4 13 31 23 2 7 10 12 33 21 11 21 31 22 9 7 8 13 12 10 6 7 13 45 25 17 13 33 41 29 62 59 60 44 69 65
6 9 12 16 18 22 24 26 29 33 34 31 31 25 13 12 14 10 4 19 25 15 7 9 7 19 34 19 9 20 25 20 16 10 7 12 13 18 3 7 37 47 56 27 14 11 39 54 53 67 68 57 61 66
6 9 14 18 18 20 24 26 29 35 33 27 24 14 6 7 7 8 17 31 14 8 6 7 10 14 36 18 14 21 12 12 16 13 13 11 23 4 7 16 52 37 39 45 38 43 38 36 56 64 59 60 62 61
7 10 15 19 18 19 23 24 30 34 21 19 19 12 4 7 7 12 23 15 22 11 7 10 6 7 23 20 12 11 10 6 8 8 12 18 7 9 25 11 19 29 33 29 31 34 46 55 50 51 54 53 53 51
8 12 17 18 15 19 22 23 32 31 17 15 18 9 6 7 26 17 6 6 8 4 6 3 19 6 18 16 9 16 5 2 4 1 2 7 5 27 43 41 28 32 31 25 29 31 26 38 49 47 46 42 43 46
10 14 17 15 14 18 22 25 31 32 18 13 9 7 16 21 13 4 3 4 5 4 10 15 17 14 11 8 5 8 7 6 6 4 5 7 9 35 50 41 38 28 30 24 32 32 33 31 29 30 32 35 37 38
10 14 15 14 14 18 21 24 31 26 20 15 15 17 11 6 3 7 7 6 12 6 13 15 20 17 12 8 6 11 5 7 8 8 6 8 9 58 37 38 35 25 27 29 26 27 28 30 30 30 29 30 31 29
11 13 13 12 13 18 19 21 26 27 17 13 9 7 6 8 13 9 13 6 6 15 10 23 16 9 9 8 10 5 7 6 8 6 7 4 50 49 29 38 41 28 14 15 18 21 25 26 28 30 29 25 19 23
11 13 11 10 14 16 17 18 19 17 12 3 4 10 4 7 8 4 5 7 11 15 19 22 16 7 8 6 8 5 9 9 7 8 7 24 52 45 38 32 30 31 30 16 13 12 17 19 21 22 20 18 20 16
11 9 12 13 13 15 15 11 13 17 10 9 10 7 8 11 7 7 11 10 10 18 16 20 17 11 10 3 6 8 8 7 7 6 8 36 46 51 57 60 53 30 24 26 16 4 13 19 20 21 19 18 15 16
9 8 21 17 11 13 10 6 12 14 4 7 13 11 16 14 16 19 14 14 10 13 21 14 9 5 7 6 9 12 6 8 7 19 36 35 41 48 51 60 63 52 30 31 38 25 18 22 20 22 24 26 28 35
11 14 20 12 8 13 14 12 10 8 9 7 7 16 8 3 7 16 18 12 12 14 6 8 9 10 13 7 7 6 6 11 32 34 32 34 35 45 50 52 41 43 41 36 33 27 27 22 22 21 20 15 15 20
7 17 13 8 6 9 14 17 12 5 8 11 10 10 9 9 14 15 15 16 6 6 7 10 10 9 7 4 4 10 14 17 17 27 31 34 37 42 48 49 41 46 26 36 26 22 34 18 18 17 21 7 7 13
8 9 8 11 13 10 7 6 6 5 13 9 9 9 10 14 16 11 20 23 16 13 10 9 9 5 2 3 9 11 19 19 23 37 36 38 39 41 40 46 46 49 22 33 28 30 22 19 19 17 16 11 14 11
8 11 15 14 10 8 5 3 6 4 6 5 5 9 6 10 16 19 20 24 27 15 14 9 5 19 11 3 11 20 25 27 20 30 33 34 36 37 35 36 40 42 39 38 25 30 28 22 28 19 12 14 10 12
13 13 11 10 12 9 3 8 3 4 6 3 3 8 8 13 15 23 21 15 19 10 8 6 3 1 4 8 16 16 21 32 15 25 30 32 32 36 37 36 34 31 41 36 39 29 28 27 32 31 24 3 7 7
7 6 9 11 5 6 6 2 5 3 1 5 3 2 4 4 6 9 16 15 8 10 4 5 5 6 8 4 7 18 21 26 21 26 27 29 31 34 38 34 30 29 32 38 33 42 30 31 30 33 15 20 14 12
8 8 5 1 2 3 4 4 5 2 1 4 3 4 7 4 3 2 8 5 3 5 8 8 14 14 16 4 7 19 21 21 26 25 28 30 29 31 30 30 29 31 29 34 20 38 36 26 33 35 14 20 16 14
3 2 6 4 6 5 3 4 4 4 4 2 4 3 6 3 3 4 8 8 9 1 6 12 13 8 11 18 12 14 21 23 23 24 28 26 27 30 28 30 29 36 24 31 36 26 31 24 33 28 29 27 20 16
4 2 4 6 7 6 7 7 7 5 1 4 2 1 3 4 3 6 6 13 11 4 7 12 12 11 13 14 16 17 22 22 24 25 25 22 20 24 27 28 31 37 23 33 30 30 28 22 21 25 25 27 28 30
3 6 8 5 1 5 7 6 3 5 2 3 3 7 6 4 3 5 5 12 9 3 5 9 10 12 11 14 21 17 17 16 17 19 21 23 15 19 24 29 31 40 26 32 28 25 25 20 18 29 24 21 28 23
5 10 11 4 9 5 8 10 9 1 7 2 3 2 1 4 6 6 4 6 3 4 8 8 8 12 14 14 20 20 14 10 11 17 19 16 16 20 25 25 29 33 27 30 30 26 27 20 14 22 17 22 22 25
9 7 2 4 3 2 6 13 9 9 5 5 5 3 3 5 4 5 4 1 10 11 10 9 12 13 16 17 15 17 16 1 6 12 7 14 25 27 28 20 21 25 28 26 31 29 21 18 15 18 16 15 21 27
7 5 3 5 4 2 5 10 6 7 7 13 5 5 4 2 7 9 10 9 9 9 11 11 12 16 20 21 12 15 9 4 9 17 15 16 21 28 30 19 21 23 31 19 24 31 25 23 19 18 18 11 19 31
4 1 1 7 8 5 7 7 11 10 6 8 7 4 1 10 14 14 15 12 9 12 13 9 16 11 13 15 13 16 14 12 9 12 18 19 18 26 30 12 17 18 23 27 17 14 25 18 14 11 16 14 9 20
2 5 6 9 7 6 10 12 14 15 16 15 17 15 16 17 16 14 15 13 14 12 9 5 10 12 6 9 12 5 10 17 21 30 34 27 25 24 16 10 11 10 15 20 26 20 12 13 18 20 17 17 13 9
5 5 5 5 8 9 15 14 8 14 18 19 19 20 22 19 17 15 15 12 12 8 12 8 9 12 4 3 9 11 11 15 24 35 29 32 27 21 16 13 5 10 13 15 16 19 16 18 16 18 16 16 18 16
7 10 14 10 9 8 9 9 11 14 17 25 24 24 27 22 16 21 11 12 6 6 8 5 0 2 5 6 13 6 10 16 20 27 33 30 26 19 19 20 15 11 15 16 12 16 19 15 17 18 18 18 21 20
Wind_Direction_500mb
357 4 6 9 9 8 11 14 16 13 13 12 11 12 15 19 17 27 41 18 3 336 310 30 6 347 336 354 325 319 337 9 332 2 11 340 345 301 316 316 302 333 342 6 328 285 269 346 345 26 314 320 333 336
354 0 4 7 4 7 11 12 11 9 9 8 4 3 5 5 10 18 46 34 357 296 276 310 314 302 328 343 356 334 296 341 356 353 16 306 302 273 320 298 338 354 360 314 254 310 262 308 359 342 351 332 327 323
349 357 3 0 3 8 10 8 5 5 5 1 357 355 355 356 4 15 43 13 1 340 359 116 107 82 315 325 334 8 339 330 315 1 269 275 272 309 307 298 317 347 340 294 323 339 359 343 5 351 348 329 344 121
347 354 354 357 3 6 3 0 359 360 358 356 356 356 356 4 15 39 50 15 346 348 297 51 18 34 31 341 331 322 317 313 290 296 270 263 258 307 266 280 313 337 332 320 240 351 332 7 354 337 329 351 126 108
341 344 346 356 359 360 358 354 354 353 352 352 355 355 360 10 18 21 37 340 338 20 310 297 34 11 1 7 6 358 344 2 348 343 266 259 329 345 322 280 13 334 335 331 312 13 7 348 330 332 34 98 99 103
321 335 347 351 353 355 355 352 349 350 346 344 346 343 349 359 351 26 110 296 337 351 27 317 343 11 20 15 343 357 11 26 24 342 307 300 286 353 322 322 315 321 315 256 337 38 36 25 6 93 93 78 87 87
313 329 341 345 346 350 350 349 351 348 339 335 337 341 358 23 22 64 62 333 350 53 42 316 307 5 14 9 7 356 12 24 22 339 302 297 308 0 342 331 325 29 48 74 40 47 39 37 29 67 74 77 82 93
297 324 336 342 342 345 347 353 354 347 342 342 342 356 61 13 18 359 341 349 21 50 23 348 331 347 7 355 345 345 357 21 7 340 310 309 314 359 41 35 39 39 54 64 70 68 67 67 60 65 74 76 77 84
295 322 333 338 339 343 347 353 350 349 353 359 357 350 293 338 7 298 315 9 64 67 26 18 357 327 347 354 312 310 343 23 341 327 340 352 329 38 354 5 48 56 71 80 74 72 57 58 66 71 68 69 74 79
303 321 330 338 338 343 348 349 351 354 354 358 355 359 350 304 332 330 14 35 53 76 42 30 15 326 334 338 294 341 309 241 10 40 44 27 313 22 23 30 36 51 47 60 62 61 82 72 69 73 74 74 74 72
312 326 337 339 340 345 347 346 352 354 354 11 334 302 311 318 329 307 242 211 144 96 40 15 15 333 333 338 304 301 297 257 23 20 68 345 347 358 11 29 43 63 51 70 74 72 71 75 73 78 77 76 76 73
328 336 340 343 344 345 348 352 349 355 345 327 316 306 321 309 300 2 4 55 53 48 4 355 336 322 305 289 277 297 274 335 25 65 40 342 325 347 3 23 29 47 58 68 69 77 80 83 86 86 84 81 79 81
343 344 345 348 346 349 352 358 344 341 346 313 338 333 14 25 38 33 3 9 353 354 352 337 322 289 304 278 270 288 333 16 38 34 332 314 329 359 11 13 30 31 59 66 82 93 94 97 95 92 91 89 65 60
352 351 357 356 354 354 358 359 351 359 349 8 232 8 64 29 44 28 306 298 296 285 305 319 296 250 268 273 257 336 9 59 20 3 0 342 4 24 22 37 24 23 33 33 65 76 99 92 97 92 81 75 68 69
2 13 21 359 6 7 5 18 31 13 2 341 39 43 33 109 71 12 355 336 304 311 303 298 282 245 268 253 24 12 46 22 1 5 319 24 21 30 37 33 29 42 43 29 15 159 119 110 107 90 72 59 69 71
25 49 9 5 14 18 28 73 22 2 348 44 40 356 19 45 23 350 350 326 332 322 306 265 261 306 17 26 43 23 31 11 321 320 3 22 22 20 24 28 28 33 49 46 47 78 96 121 104 97 81 69 62 61
44 359 344 358 25 54 67 41 13 25 22 45 33 45 53 53 336 320 326 349 337 331 312 324 36 4 16 48 36 24 349 321 316 336 358 3 8 18 14 15 20 28 48 56 65 67 73 84 82 79 80 66 51 47
7 346 354 34 70 72 42 12 348 42 74 31 62 38 46 346 331 352 354 355 276 294 29 28 58 38 49 45 339 309 311 350 357 1 358 17 25 16 15 13 17 19 43 47 42 46 59 64 63 65 57 44 37 41
359 10 51 82 81 63 33 26 38 9 69 64 57 13 353 9 17 27 57 34 66 103 91 58 58 42 59 303 263 326 2 2 4 12 11 19 17 15 16 19 21 24 44 36 38 53 61 61 55 53 68 56 44 62
47 63 80 79 78 30 345 50 12 25 48 95 36 352 21 24 36 70 49 35 58 60 60 60 74 153 155 55 340 344 3 8 20 18 20 15 14 9 20 21 18 26 29 27 35 29 18 38 27 18 17 43 51 22
63 39 73 84 54 29 310 322 74 28 68 7 107 42 57 77 69 79 75 52 46 37 66 95 142 256 283 57 27 36 20 7 28 33 12 9 18 14 22 24 22 24 27 21 19 21 30 26 12 360 0 48 76 95
64 73 93 29 13 344 286 357 328 55 85 195 220 185 118 99 70 91 95 51 55 45 23 50 52 42 347 171 42 50 37 23 43 25 22 24 26 18 20 24 22 19 22 17 19 15 28 15 11 17 56 45 32 358
104 65 32 337 328 297 290 262 241 220 119 223 218 232 159 147 180 56 96 120 156 28 21 24 19 357 356 71 96 33 32 33 26 27 27 23 24 23 21 24 19 16 21 8 355 18 21 26 22 14 25 35 7 350
6 1 319 290 231 258 240 211 224 283 258 230 249 170 149 160 211 204 126 149 142 155 311 330 356 342 35 50 44 26 28 27 22 16 21 18 22 22 20 21 6 360 27 6 5 359 10 23 39 31 31 25 13 35
320 263 256 248 264 254 254 173 186 233 129 248 345 247 214 170 231 198 139 157 156 185 355 347 338 356 41 23 14 24 24 20 14 8 9 8 13 14 15 15 4 355 28 11 6 8 12 11 20 24 23 20 24 15
305 220 216 266 353 281 340 309 327 136 134 317 296 125 240 253 257 109 71 135 126 138 39 2 5 10 355 347 352 357 357 357 1 5 1 357 5 15 13 7 2 359 23 5 353 357 2 0 12 17 10 14 12 23
256 219 200 261 321 42 355 306 87 248 272 300 102 111 272 9 21 44 110 89 75 324 292 323 321 335 331 312 319 317 313 322 354 21 6 22 11 8 7 7 358 358 360 349 359 15 359 355 22 8 17 10 21 17
289 338 300 138 37 342 303 295 342 322 52 335 152 164 42 117 223 18 62 268 329 329 265 305 323 295 296 314 310 325 330 92 42 26 36 28 17 2 353 359 360 359 343 352 35 20 8 1 2 343 351 14 19 7
246 275 268 221 149 356 289 283 324 345 349 335 358 116 136 221 281 304 319 318 309 298 293 313 315 312 301 318 0 29 4 352 29 44 33 6 353 349 334 354 5 358 343 15 36 18 11 18 9 15 22 49 45 57
215 9 157 283 142 239 250 332 305 299 309 309 290 113 279 286 297 288 290 260 292 267 286 307 326 345 343 342 29 37 25 9 355 346 354 344 336 312 316 352 11 359 359 2 0 38 57 48 60 82 7 15 30 31
265 277 214 238 274 278 273 285 290 297 296 279 283 295 291 288 283 276 275 265 275 285 295 289 315 344 17 334 343 317 21 354 338 345 347 345 334 328 339 20 354 4 23 0 350 10 0 360 7 19 10 7 14 7
215 204 281 311 300 303 303 283 277 279 280 274 278 275 287 296 291 283 255 262 258 264 289 294 308 342 301 40 16 353 355 306 330 342 350 351 351 350 342 339 348 108 55 29 357 356 22 22 23 14 8 11 6 27
187 222 240 253 256 274 277 253 268 269 256 242 237 248 247 247 260 257 263 205 227 221 220 271 107 294 344 17 350 1 316 312 330 341 349 357 4 15 26 29 27 105 73 49 22 14 17 3 354 349 356 1 2 3
Wind_Speed_850mb
14 15 18 21 25 27 28 29 29 32 35 37 38 38 39 41 40 29 23 31 39 13 18 9 18 24 22 19 7 35 22 23 13 11 7 7 7 8 9 23 14 10 11 7 7 7 3 45 26 13 15 41 38 48
11 13 17 20 22 25 26 27 27 31 34 35 36 37 37 37 35 35 24 21 24 23 20 30 24 14 12 10 15 24 16 13 11 6 7 6 6 7 19 8 12 9 8 6 4 4 19 32 17 33 40 36 40 38
10 12 16 18 21 23 25 25 27 30 31 34 38 39 35 31 30 28 18 33 42 15 14 16 11 5 12 19 21 7 9 15 6 5 5 5 9 6 6 8 26 24 22 4 12 12 19 21 30 35 42 42 34 29
8 10 13 16 20 23 24 25 27 29 30 35 39 37 31 22 24 14 17 22 25 11 8 11 12 27 12 26 20 21 20 20 20 14 5 6 7 9 6 16 15 8 16 17 3 20 23 28 45 54 40 31 44 52
7 9 12 16 20 22 24 25 28 30 31 34 36 32 27 20 16 11 7 12 28 20 6 16 11 12 37 17 10 7 20 28 12 7 5 5 15 12 9 12 6 8 7 8 5 31 22 34 55 43 8 39 49 80
6 8 12 16 19 22 24 25 28 31 32 32 33 30 23 20 16 6 4 13 31 23 2 7 10 12 33 21 11 21 31 22 9 7 8 13 12 10 6 7 13 45 25 17 13 33 41 29 62 59 60 44 69 65
6 9 12 16 18 22 24 26 29 33 34 31 31 25 13 12 14 10 4 19 25 15 7 9 7 19 34 19 9 20 25 20 16 10 7 12 13 18 3 7 37 47 56 27 14 11 39 54 53 67 68 57 61 66
6 9 14 18 18 20 24 26 29 35 33 27 24 14 6 7 7 8 17 31 14 8 6 7 10 14 36 18 14 21 12 12 16 13 13 11 23 4 7 16 52 37 39 45 38 43 38 36 56 64 59 60 62 61
7 10 15 19 18 19 23 24 30 34 21 19 19 12 4 7 7 12 23 15 22 11 7 10 6 7 23 20 12 11 10 6 8 8 12 18 7 9 25 11 19 29 33 29 31 34 46 55 50 51 54 53 53 51
8 12 17 18 15 19 22 23 32 31 17 15 18 9 6 7 26 17 6 6 8 4 6 3 19 6 18 16 9 16 5 2 4 1 2 7 5 27 43 41 28 32 31 25 29 31 26 38 49 47 46 42 43 46
10 14 17 15 14 18 22 25 31 32 18 13 9 7 16 21 13 4 3 4 5 4 10 15 17 14 11 8 5 8 7 6 6 4 5 7 9 35 50 41 38 28 30 24 32 32 33 31 29 30 32 35 37 38
10 14 15 14 14 18 21 24 31 26 20 15 15 17 11 6 3 7 7 6 12 6 13 15 20 17 12 8 6 11 5 7 8 8 6 8 9 58 37 38 35 25 27 29 26 27 28 30 30 30 29 30 31 29
11 13 13 12 13 18 19 21 26 27 17 13 9 7 6 8 13 9 13 6 6 15 10 23 16 9 9 8 10 5 7 6 8 6 7 4 50 49 29 38 41 28 14 15 18 21 25 26 28 30 29 25 19 23
11 13 11 10 14 16 17 18 19 17 12 3 4 10 4 7 8 4 5 7 11 15 19 22 16 7 8 6 8 5 9 9 7 8 7 24 52 45 38 32 30 31 30 16 13 12 17 19 21 22 20 18 20 16
11 9 12 13 13 15 15 11 13 17 10 9 10 7 8 11 7 7 11 10 10 18 16 20 17 11 10 3 6 8 8 7 7 6 8 36 46 51 57 60 53 30 24 26 16 4 13 19 20 21 19 18 15 16
9 8 21 17 11 13 10 6 12 14 4 7 13 11 16 14 16 19 14 14 10 13 21 14 9 5 7 6 9 12 6 8 7 19 36 35 41 48 51 60 63 52 30 31 38 25 18 22 20 22 24 26 28 35
11 14 20 12 8 13 14 12 10 8 9 7 7 16 8 3 7 16 18 12 12 14 6 8 9 10 13 7 7 6 6 11 32 34 32 34 35 45 50 52 41 43 41 36 33 27 27 22 22 21 20 15 15 20
7 17 13 8 6 9 14 17 12 5 8 11 10 10 9 9 14 15 15 16 6 6 7 10 10 9 7 4 4 10 14 17 17 27 31 34 37 42 48 49 41 46 26 36 26 22 34 18 18 17 21 7 7 13
8 9 8 11 13 10 7 6 6 5 13 9 9 9 10 14 16 11 20 23 16 13 10 9 9 5 2 3 9 11 19 19 23 37 36 38 39 41 40 46 46 49 22 33 28 30 22 19 19 17 16 11 14 11
8 11 15 14 10 8 5 3 6 4 6 5 5 9 6 10 16 19 20 24 27 15 14 9 5 19 11 3 11 20 25 27 20 30 33 34 36 37 35 36 40 42 39 38 25 30 28 22 28 19 12 14 10 12
13 13 11 10 12 9 3 8 3 4 6 3 3 8 8 13 15 23 21 15 19 10 8 6 3 1 4 8 16 16 21 32 15 25 30 32 32 36 37 36 34 31 41 36 39 29 28 27 32 31 24 3 7 7
7 6 9 11 5 6 6 2 5 3 1 5 3 2 4 4 6 9 16 15 8 10 4 5 5 6 8 4 7 18 21 26 21 26 27 29 31 34 38 34 30 29 32 38 33 42 30 31 30 33 15 20 14 12
8 8 5 1 2 3 4 4 5 2 1 4 3 4 7 4 3 2 8 5 3 5 8 8 14 14 16 4 7 19 21 21 26 25 28 30 29 31 30 30 29 31 29 34 20 38 36 26 33 35 14 20 16 14
3 2 6 4 6 5 3 4 4 4 4 2 4 3 6 3 3 4 8 8 9 1 6 12 13 8 11 18 12 14 21 23 23 24 28 26 27 30 28 30 29 36 24 31 36 26 31 24 33 28 29 27 20 16
4 2 4 6 7 6 7 7 7 5 1 4 2 1 3 4 3 6 6 13 11 4 7 12 12 11 13 14 16 17 22 22 24 25 25 22 20 24 27 28 31 37 23 33 30 30 28 22 21 25 25 27 28 30
3 6 8 5 1 5 7 6 3 5 2 3 3 7 6 4 3 5 5 12 9 3 5 9 10 12 11 14 21 17 17 16 17 19 21 23 15 19 24 29 31 40 26 32 28 25 25 20 18 29 24 21 28 23
5 10 11 4 9 5 8 10 9 1 7 2 3 2 1 4 6 6 4 6 3 4 8 8 8 12 14 14 20 20 14 10 11 17 19 16 16 20 25 25 29 33 27 30 30 26 27 20 14 22 17 22 22 25
9 7 2 4 3 2 6 13 9 9 5 5 5 3 3 5 4 5 4 1 10 11 10 9 12 13 16 17 15 17 16 1 6 12 7 14 25 27 28 20 21 25 28 26 31 29 21 18 15 18 16 15 21 27
7 5 3 5 4 2 5 10 6 7 7 13 5 5 4 2 7 9 10 9 9 9 11 11 12 16 20 21 12 15 9 4 9 17 15 16 21 28 30 19 21 23 31 19 24 31 25 23 19 18 18 11 19 31
4 1 1 7 8 5 7 7 11 10 6 8 7 4 1 10 14 14 15 12 9 12 13 9 16 11 13 15 13 16 14 12 9 12 18 19 18 26 30 12 17 18 23 27 17 14 25 18 14 11 16 14 9 20
2 5 6 9 7 6 10 12 14 15 16 15 17 15 16 17 16 14 15 13 14 12 9 5 10 12 6 9 12 5 10 17 21 30 34 27 25 24 16 10 11 10 15 20 26 20 12 13 18 20 17 17 13 9
5 5 5 5 8 9 15 14 8 14 18 19 19 20 22 19 17 15 15 12 12 8 12 8 9 12 4 3 9 11 11 15 24 35 29 32 27 21 16 13 5 10 13 15 16 19 16 18 16 18 16 16 18 16
7 10 14 10 9 8 9 9 11 14 17 25 24 24 27 22 16 21 11 12 6 6 8 5 0 2 5 6 13 6 10 16 20 27 33 30 26 19 19 20 15 11 15 16 12 16 19 15 17 18 18 18 21 20
Wind_Direction_850mb
357 4 6 9 9 8 11 14 16 13 13 12 11 12 15 19 17 27 41 18 3 336 310 30 6 347 336 354 325 319 337 9 332 2 11 340 345 301 316 316 302 333 342 6 328 285 269 346 345 26 314 320 333 336
354 0 4 7 4 7 11 12 11 9 9 8 4 3 5 5 10 18 46 34 357 296 276 310 314 302 328 343 356 334 296 341 356 353 16 306 302 273 320 298 338 354 360 314 254 310 262 308 359 342 351 332 327 323
349 357 3 0 3 8 10 8 5 5 5 1 357 355 355 356 4 15 43 13 1 340 359 116 107 82 315 325 334 8 339 330 315 1 269 275 272 309 307 298 317 347 340 294 323 339 359 343 5 351 348 329 344 121
347 354 354 357 3 6 3 0 359 360 358 356 356 356 356 4 15 39 50 15 346 348 297 51 18 34 31 341 331 322 317 313 290 296 270 263 258 307 266 280 313 337 332 320 240 351 332 7 354 337 329 351 126 108
341 344 346 356 359 360 358 354 354 353 352 352 355 355 360 10 18 21 37 340 338 20 310 297 34 11 1 7 6 358 344 2 348 343 266 259 329 345 322 280 13 334 335 331 312 13 7 348 330 332 34 98 99 103
321 335 347 351 353 355 355 352 349 350 346 344 346 343 349 359 351 26 110 296 337 351 27 317 343 11 20 15 343 357 11 26 24 342 307 300 286 353 322 322 315 321 315 256 337 38 36 25 6 93 93 78 87 87
313 329 341 345 346 350 350 349 351 348 339 335 337 341 358 23 22 64 62 333 350 53 42 316 307 5 14 9 7 356 12 24 22 339 302 297 308 0 342 331 325 29 48 74 40 47 39 37 29 67 74 77 82 93
297 324 336 342 342 345 347 353 354 347 342 342 342 356 61 13 18 359 341 349 21 50 23 348 331 347 7 355 345 345 357 21 7 340 310 309 314 359 41 35 39 39 54 64 70 68 67 67 60 65 74 76 77 84
295 322 333 338 339 343 347 353 350 349 353 359 357 350 293 338 7 298 315 9 64 67 26 18 357 327 347 354 312 310 343 23 341 327 340 352 329 38 354 5 48 56 71 80 74 72 57 58 66 71 68 69 74 79
303 321 330 338 338 343 348 349 351 354 354 358 355 359 350 304 332 330 14 35 53 76 42 30 15 326 334 338 294 341 309 241 10 40 44 27 313 22 23 30 36 51 47 60 62 61 82 72 69 73 74 74 74 72
312 326 337 339 340 345 347 346 352 354 354 11 334 302 311 318 329 307 242 211 144 96 40 15 15 333 333 338 304 301 297 257 23 20 68 345 347 358 11 29 43 63 51 70 74 72 71 75 73 78 77 76 76 73
328 336 340 343 344 345 348 352 349 355 345 327 316 306 321 309 300 2 4 55 53 48 4 355 336 322 305 289 277 297 274 335 25 65 40 342 325 347 3 23 29 47 58 68 69 77 80 83 86 86 84 81 79 81
343 344 345 348 346 349 352 358 344 341 346 313 338 333 14 25 38 33 3 9 353 354 352 337 322 289 304 278 270 288 333 16 38 34 332 314 329 359 11 13 30 31 59 66 82 93 94 97 95 92 91 89 65 60
352 351 357 356 354 354 358 359 351 359 349 8 232 8 64 29 44 28 306 298 296 285 305 319 296 250 268 273 257 336 9 59 20 3 0 342 4 24 22 37 24 23 33 33 65 76 99 92 97 92 81 75 68 69
2 13 21 359 6 7 5 18 31 13 2 341 39 43 33 109 71 12 355 336 304 311 303 298 282 245 268 253 24 12 46 22 1 5 319 24 21 30 37 33 29 42 43 29 15 159 119 110 107 90 72 59 69 71
25 49 9 5 14 18 28 73 22 2 348 44 40 356 19 45 23 350 350 326 332 322 306 265 261 306 17 26 43 23 31 11 321 320 3 22 22 20 24 28 28 33 49 46 47 78 96 121 104 97 81 69 62 61
44 359 344 358 25 54 67 41 13 25 22 45 33 45 53 53 336 320 326 349 337 331 312 324 36 4 16 48 36 24 349 321 316 336 358 3 8 18 14 15 20 28 48 56 65 67 73 84 82 79 80 66 51 47
7 346 354 34 70 72 42 12 348 42 74 31 62 38 46 346 331 352 354 355 276 294 29 28 58 38 49 45 339 309 311 350 357 1 358 17 25 16 15 13 17 19 43 47 42 46 59 64 63 65 57 44 37 41
359 10 51 82 81 63 33 26 38 9 69 64 57 13 353 9 17 27 57 34 66 103 91 58 58 42 59 303 263 326 2 2 4 12 11 19 17 15 16 19 21 24 44 36 38 53 61 61 55 53 68 56 44 62
47 63 80 79 78 30 345 50 12 25 48 95 36 352 21 24 36 70 49 35 58 60 60 60 74 153 155 55 340 344 3 8 20 18 20 15 14 9 20 21 18 26 29 27 35 29 18 38 27 18 17 43 51 22
63 39 73 84 54 29 310 322 74 28 68 7 107 42 57 77 69 79 75 52 46 37 66 95 142 256 283 57 27 36 20 7 28 33 12 9 18 14 22 24 22 24 27 21 19 21 30 26 12 360 0 48 76 95
64 73 93 29 13 344 286 357 328 55 85 195 220 185 118 99 70 91 95 51 55 45 23 50 52 42 347 171 42 50 37 23 43 25 22 24 26 18 20 24 22 19 22 17 19 15 28 15 11 17 56 45 32 358
104 65 32 337 328 297 290 262 241 220 119 223 218 232 159 147 180 56 96 120 156 28 21 24 19 357 356 71 96 33 32 33 26 27 27 23 24 23 21 24 19 16 21 8 355 18 21 26 22 14 25 35 7 350
6 1 319 290 231 258 240 211 224 283 258 230 249 170 149 160 211 204 126 149 142 155 311 330 356 342 35 50 44 26 28 27 22 16 21 18 22 22 20 21 6 360 27 6 5 359 10 23 39 31 31 25 13 35
320 263 256 248 264 254 254 173 186 233 129 248 345 247 214 170 231 198 139 157 156 185 355 347 338 356 41 23 14 24 24 20 14 8 9 8 13 14 15 15 4 355 28 11 6 8 12 11 20 24 23 20 24 15
305 220 216 266 353 281 340 309 327 136 134 317 296 125 240 253 257 109 71 135 126 138 39 2 5 10 355 347 352 357 357 357 1 5 1 357 5 15 13 7 2 359 23 5 353 357 2 0 12 17 10 14 12 23
256 219 200 261 321 42 355 306 87 248 272 300 102 111 272 9 21 44 110 89 75 324 292 323 321 335 331 312 319 317 313 322 354 21 6 22 11 8 7 7 358 358 360 349 359 15 359 355 22 8 17 10 21 17
289 338 300 138 37 342 303 295 342 322 52 335 152 164 42 117 223 18 62 268 329 329 265 305 323 295 296 314 310 325 330 92 42 26 36 28 17 2 353 359 360 359 343 352 35 20 8 1 2 343 351 14 19 7
246 275 268 221 149 356 289 283 324 345 349 335 358 116 136 221 281 304 319 318 309 298 293 313 315 312 301 318 0 29 4 352 29 44 33 6 353 349 334 354 5 358 343 15 36 18 11 18 9 15 22 49 45 57
215 9 157 283 142 239 250 332 305 299 309 309 290 113 279 286 297 288 290 260 292 267 286 307 326 345 343 342 29 37 25 9 355 346 354 344 336 312 316 352 11 359 359 2 0 38 57 48 60 82 7 15 30 31
265 277 214 238 274 278 273 285 290 297 296 279 283 295 291 288 283 276 275 265 275 285 295 289 315 344 17 334 343 317 21 354 338 345 347 345 334 328 339 20 354 4 23 0 350 10 0 360 7 19 10 7 14 7
215 204 281 311 300 303 303 283 277 279 280 274 278 275 287 296 291 283 255 262 258 264 289 294 308 342 301 40 16 353 355 306 330 342 350 351 351 350 342 339 348 108 55 29 357 356 22 22 23 14 8 11 6 27
187 222 240 253 256 274 277 253 268 269 256 242 237 248 247 247 260 257 263 205 227 221 220 271 107 294 344 17 350 1 316 312 330 341 349 357 4 15 26 29 27 105 73 49 22 14 17 3 354 349 356 1 2 3